Location: ?nandapuram
(16.5396°N, 81.1430°E)
Time: 09:01:41
(UTC+00:00)

Cosmos 2333 Rocket - Pass Details

Date: 14 April 2026
Orbit: 842 x 860 km, 70.8° (Epoch: 12 May)

Event Time Altitude Azimuth Distance (km) Brightness Sun altitude
Rises 22:57:41 0° 345° (NNW) 3,398 5.4 -20.1°
Reaches altitude 10° 23:00:08 10° 347° (NNW) 2,464 4.7 -19.5°
Maximum altitude 23:05:48 77° 73° (ENE) 873 2.3 -18.2°
Drops below altitude 10° 23:11:28 10° 159° (SSE) 2,474 4.7 -16.9°
Sets 23:13:56 0° 160° (SSE) 3,411 5.4 -16.4°
